| time (UTC) | temp F | wind direction | speed knots | gust knots | rain 1hr in | rain 24hr in | rain mn in | humidity % | barometer mb |
| 20260504044541 | 47 | 0 | 0.0 | 0.0 | 0.00 | 0.00 | 0.00 | 87 | 1016.0 |
| 20260504043036 | 47 | 0 | 0.0 | 0.0 | 0.00 | 0.00 | 0.00 | 88 | 1016.1 |
| 20260504041530 | 48 | 0 | 0.0 | 0.9 | 0.00 | 0.00 | 0.00 | 87 | 1016.3 |
| 20260504040032 | 48 | 0 | 0.0 | 0.0 | 0.00 | 0.00 | 0.00 | 87 | 1016.4 |
| 20260504034539 | 48 | 0 | 0.0 | 0.0 | 0.00 | 0.00 | 0.00 | 86 | 1016.2 |
| 20260504033041 | 48 | 0 | 0.0 | 0.0 | 0.00 | 0.00 | 0.00 | 85 | 1016.2 |
| 20260504031534 | 49 | 0 | 0.0 | 0.0 | 0.00 | 0.00 | 0.00 | 85 | 1016.1 |
| 20260504030034 | 50 | 0 | 0.0 | 0.0 | 0.00 | 0.00 | 0.00 | 83 | 1016.1 |
| 20260504024533 | 50 | 0 | 0.0 | 0.0 | 0.00 | 0.00 | 0.00 | 82 | 1016.1 |
| 20260504023032 | 51 | 0 | 0.0 | 0.0 | 0.00 | 0.00 | 0.00 | 81 | 1015.9 |
| 20260504021534 | 52 | 0 | 0.0 | 0.0 | 0.00 | 0.00 | 0.00 | 79 | 1015.8 |
| 20260504020031 | 52 | 0 | 0.0 | 0.0 | 0.00 | 0.00 | 0.00 | 77 | 1015.7 |
| 20260504014533 | 53 | 0 | 0.0 | 0.0 | 0.00 | 0.00 | 0.00 | 75 | 1015.6 |
| 20260504013037 | 54 | 0 | 0.0 | 0.0 | 0.00 | 0.00 | 0.00 | 73 | 1015.3 |
| 20260504011531 | 55 | 0 | 0.0 | 0.0 | 0.00 | 0.00 | 0.00 | 72 | 1015.2 |
| 20260504010036 | 56 | 0 | 0.0 | 0.0 | 0.00 | 0.00 | 0.00 | 70 | 1015.2 |
| 20260504004530 | 57 | 0 | 0.0 | 0.9 | 0.00 | 0.00 | 0.00 | 69 | 1015.0 |
| 20260504003030 | 59 | 0 | 0.0 | 0.0 | 0.00 | 0.00 | 0.00 | 66 | 1014.7 |
| 20260504001532 | 61 | 0 | 0.0 | 0.9 | 0.00 | 0.00 | 0.00 | 61 | 1014.6 |
| 20260504000031 | 65 | 240 | 0.9 | 4.3 | 0.00 | 0.00 | 0.00 | 48 | 1014.5 |
| 20260503234534 | 66 | 247 | 2.6 | 4.3 | 0.00 | 0.00 | 0.00 | 44 | 1014.5 |
| 20260503233030 | 67 | 218 | 2.6 | 7.0 | 0.00 | 0.00 | 0.00 | 42 | 1014.6 |
| 20260503231530 | 68 | 210 | 2.6 | 6.1 | 0.00 | 0.00 | 0.00 | 41 | 1014.6 |
| 20260503230032 | 69 | 262 | 2.6 | 7.8 | 0.00 | 0.00 | 0.00 | 39 | 1014.7 |
| 20260503224530 | 69 | 221 | 2.6 | 7.8 | 0.00 | 0.00 | 0.00 | 38 | 1014.8 |
| 20260503223031 | 69 | 211 | 2.6 | 8.7 | 0.00 | 0.00 | 0.00 | 39 | 1014.8 |
| 20260503221539 | 69 | 238 | 4.3 | 8.7 | 0.00 | 0.00 | 0.00 | 39 | 1015.0 |
| 20260503220030 | 69 | 232 | 4.3 | 8.7 | 0.00 | 0.00 | 0.00 | 38 | 1014.9 |
| 20260503214531 | 68 | 217 | 4.3 | 8.7 | 0.00 | 0.00 | 0.00 | 39 | 1015.2 |
| 20260503213035 | 69 | 235 | 3.5 | 10.4 | 0.00 | 0.00 | 0.00 | 39 | 1015.3 |
| 20260503211529 | 69 | 248 | 4.3 | 8.7 | 0.00 | 0.00 | 0.00 | 38 | 1015.3 |
| 20260503210032 | 68 | 216 | 4.3 | 11.3 | 0.00 | 0.00 | 0.00 | 38 | 1015.6 |
| 20260503204532 | 68 | 301 | 4.3 | 9.6 | 0.00 | 0.00 | 0.00 | 41 | 1015.7 |
| 20260503203034 | 68 | 252 | 5.2 | 9.6 | 0.00 | 0.00 | 0.00 | 43 | 1015.9 |
| 20260503201532 | 68 | 244 | 4.3 | 11.3 | 0.00 | 0.00 | 0.00 | 43 | 1016.3 |
| 20260503200034 | 67 | 200 | 3.5 | 11.3 | 0.00 | 0.00 | 0.00 | 45 | 1016.6 |
| 20260503194531 | 67 | 312 | 2.6 | 7.0 | 0.00 | 0.00 | 0.00 | 46 | 1016.8 |
| 20260503193040 | 66 | 207 | 4.3 | 12.2 | 0.00 | 0.00 | 0.00 | 47 | 1017.3 |
| 20260503191532 | 66 | 225 | 3.5 | 10.4 | 0.00 | 0.00 | 0.00 | 45 | 1017.5 |
| 20260503190035 | 66 | 229 | 7.0 | 12.2 | 0.00 | 0.00 | 0.00 | 47 | 1017.7 |
| 20260503184530 | 66 | 274 | 3.5 | 10.4 | 0.00 | 0.00 | 0.00 | 45 | 1017.8 |
| 20260503183038 | 65 | 221 | 5.2 | 10.4 | 0.00 | 0.00 | 0.00 | 47 | 1018.0 |
| 20260503181601 | 64 | 199 | 1.7 | 7.0 | 0.00 | 0.00 | 0.00 | 50 | 1018.0 |
| 20260503180037 | 64 | 157 | 0.9 | 7.8 | 0.00 | 0.00 | 0.00 | 50 | 1018.0 |
| 20260503174532 | 64 | 241 | 3.5 | 9.6 | 0.00 | 0.00 | 0.00 | 49 | 1018.3 |
| 20260503173045 | 63 | 169 | 3.5 | 7.8 | 0.00 | 0.00 | 0.00 | 49 | 1018.5 |
| 20260503171529 | 64 | 221 | 3.5 | 7.8 | 0.00 | 0.00 | 0.00 | 50 | 1018.6 |
| 20260503081536 | 42 | 0 | 0.0 | 0.0 | 0.00 | 0.00 | 0.00 | 96 | 1016.6 |